Weather History for Hutchinson, MN

Change the Weather History Date:

Monday, February 11, 2013

  Actual Average Record
Temperature  
Mean Temperature 22 °F -  
Max Temperature 29 °F 26 °F 55 °F (1961)
Min Temperature 14 °F 4 °F -29 °F (1981)
Degree Days  
Heating Degree Days 43    
Moisture  
Dew Point 20 °F    
Average Humidity 88    
Maximum Humidity 100    
Minimum Humidity 80    
Precipitation  
Precipitation 0.00 in - - ()
Sea Level Pressure  
Sea Level Pressure 29.80 in    
Wind  
Wind Speed 12 mph (WNW)    
Max Wind Speed 18 mph    
Max Gust Speed 25 mph    
Visibility 9 miles    
Events      
Averages and records for this station are not official NWS values.
T = Trace of Precipitation, MM = Missing Value Source: NWS Daily Summary

Daily Weather History Graph

Daily Weather History Graph

Search for Another Location

Airport:

Trip Planner

Search our weather history database for the weather conditions in past years. The results will help you decide how hot, cold, wet, or windy it might be!

Date:

Astronomy

Feb. 11, 2013 Rise Set
Actual Time 7:23 AM CST 5:40 PM CST
Civil Twilight 6:53 AM CST 6:10 PM CST
Nautical Twilight 6:18 AM CST 6:45 PM CST
Astronomical Twilight 5:44 AM CST 7:19 PM CST
Moon 7:42 AM CST (2/11) 7:45 PM CST (2/11)
Length of Visible Light 11h 17m
Length of Day
10h 16m
Waxing Crescent, 3% of the Moon is Illuminated
Feb 11
Waxing Crescent
Feb 17
First Quarter
Feb 25
Full
Mar 4
Last Quarter
Mar 11
New

Hourly Weather History & Observations

Time (CST) Temp. Windchill Dew Point Humidity Pressure Visibility Wind Dir Wind Speed Gust Speed Precip Events Conditions
12:05 AM 28.4 °F 20.4 °F 28.4 °F 100% 29.39 in 10.0 mi NW 8.1 mph - N/A   Overcast
12:25 AM 28.4 °F 19.7 °F 28.4 °F 100% 29.41 in 10.0 mi NW 9.2 mph - N/A   Overcast
12:45 AM 28.4 °F 19.1 °F 28.4 °F 100% 29.42 in 10.0 mi NW 10.4 mph - N/A   Overcast
1:05 AM 28.4 °F 19.1 °F 28.4 °F 100% 29.43 in 10.0 mi NW 10.4 mph - N/A   Overcast
1:25 AM 28.4 °F 19.1 °F 26.6 °F 93% 29.44 in 10.0 mi NW 10.4 mph - N/A   Overcast
1:46 AM 29.3 °F 19.1 °F 27.3 °F 92% 29.46 in 10.0 mi WNW 12.7 mph - N/A   Overcast
1:48 AM 29.3 °F 19.6 °F 27.3 °F 92% 29.46 in 10.0 mi WNW 11.5 mph - N/A   Overcast
2:08 AM 29.3 °F 19.1 °F 27.5 °F 93% 29.47 in 7.0 mi WNW 12.7 mph - N/A   Overcast
2:48 AM 29.3 °F 19.1 °F 27.9 °F 94% 29.49 in 4.0 mi WNW 12.7 mph 18.4 mph N/A   Overcast
3:08 AM 29.3 °F 18.6 °F 27.3 °F 92% 29.51 in 7.0 mi WNW 13.8 mph 19.6 mph N/A   Overcast
3:28 AM 29.3 °F 19.1 °F 26.6 °F 90% 29.52 in 10.0 mi WNW 12.7 mph - N/A   Overcast
3:48 AM 29.3 °F 18.6 °F 26.6 °F 90% 29.53 in 7.0 mi WNW 13.8 mph - N/A   Overcast
4:08 AM 29.3 °F 19.1 °F 26.4 °F 89% 29.55 in 10.0 mi WNW 12.7 mph - N/A   Overcast
4:28 AM 28.4 °F 18.5 °F 25.5 °F 89% 29.57 in 10.0 mi WNW 11.5 mph 18.4 mph N/A   Overcast
4:48 AM 26.6 °F 15.7 °F 23.9 °F 90% 29.58 in 10.0 mi WNW 12.7 mph 19.6 mph N/A   Overcast
5:08 AM 26.6 °F 15.7 °F 23.9 °F 90% 29.60 in 10.0 mi WNW 12.7 mph - N/A   Overcast
5:48 AM 24.4 °F 13.5 °F 21.7 °F 89% 29.63 in 10.0 mi WNW 11.5 mph 18.4 mph N/A   Mostly Cloudy
6:08 AM 24.3 °F 13.3 °F 21.9 °F 91% 29.64 in 7.0 mi WNW 11.5 mph - N/A   Mostly Cloudy
6:28 AM 25.2 °F 13.9 °F 22.8 °F 91% 29.66 in 10.0 mi WNW 12.7 mph - N/A   Overcast
6:48 AM 24.3 °F 12.7 °F 22.3 °F 92% 29.67 in 7.0 mi WNW 12.7 mph - N/A   Scattered Clouds
7:08 AM 23.2 °F 12.6 °F 21.4 °F 93% 29.68 in 10.0 mi WNW 10.4 mph - N/A   Scattered Clouds
7:29 AM 23.0 °F 11.7 °F 21.2 °F 93% 29.70 in 10.0 mi WNW 11.5 mph - N/A   Mostly Cloudy
7:48 AM 23.0 °F 12.4 °F 20.8 °F 91% 29.72 in 10.0 mi WNW 10.4 mph 16.1 mph N/A   Overcast
8:08 AM 24.3 °F 13.9 °F 21.7 °F 90% 29.74 in 10.0 mi WNW 10.4 mph - N/A   Overcast
8:28 AM 24.3 °F 13.9 °F 21.6 °F 89% 29.75 in 10.0 mi West 10.4 mph - N/A   Overcast
8:48 AM 24.3 °F 12.7 °F 21.2 °F 88% 29.76 in 10.0 mi West 12.7 mph - N/A   Mostly Cloudy
9:08 AM 24.3 °F 12.7 °F 21.6 °F 89% 29.78 in 10.0 mi WNW 12.7 mph - N/A   Mostly Cloudy
9:28 AM 24.3 °F 12.2 °F 21.4 °F 89% 29.79 in 7.0 mi WNW 13.8 mph 18.4 mph N/A   Scattered Clouds
9:48 AM 24.3 °F 12.2 °F 21.2 °F 88% 29.80 in 10.0 mi WNW 13.8 mph 18.4 mph N/A   Scattered Clouds
10:08 AM 24.3 °F 12.7 °F 21.0 °F 87% 29.81 in 10.0 mi WNW 12.7 mph 17.3 mph N/A   Mostly Cloudy
10:28 AM 24.3 °F 12.7 °F 20.8 °F 87% 29.83 in 10.0 mi WNW 12.7 mph 17.3 mph N/A   Overcast
10:48 AM 24.3 °F 12.2 °F 20.7 °F 86% 29.83 in 10.0 mi WNW 13.8 mph - N/A   Overcast
11:08 AM 24.3 °F 12.7 °F 20.8 °F 87% 29.85 in 10.0 mi West 12.7 mph 18.4 mph N/A   Overcast
11:28 AM 24.3 °F 11.7 °F 20.3 °F 85% 29.85 in 10.0 mi WNW 15.0 mph - N/A   Overcast
11:45 AM 24.6 °F 13.2 °F 20.5 °F 84% 29.86 in 10.0 mi WNW 12.7 mph - N/A   Scattered Clouds
12:00 PM 24.6 °F 12.7 °F 20.5 °F 84% 29.86 in 10.0 mi West 13.8 mph - N/A   Scattered Clouds
12:25 PM 24.8 °F 12.4 °F 21.2 °F 86% 29.87 in 10.0 mi WNW 15.0 mph 18.4 mph N/A   Mostly Cloudy
12:50 PM 24.8 °F 12.9 °F 21.2 °F 86% 29.88 in 10.0 mi WNW 13.8 mph - N/A   Overcast
1:05 PM 24.8 °F 12.9 °F 21.2 °F 86% 29.88 in 7.0 mi WNW 13.8 mph 21.9 mph N/A   Overcast
1:25 PM 24.8 °F 11.5 °F 21.2 °F 86% 29.89 in 7.0 mi West 17.3 mph 20.7 mph N/A   Overcast
1:45 PM 24.8 °F 11.9 °F 21.2 °F 86% 29.89 in 10.0 mi WNW 16.1 mph 20.7 mph N/A   Overcast
1:59 PM 24.3 °F 12.2 °F 20.3 °F 85% 29.90 in 10.0 mi WNW 13.8 mph 21.9 mph N/A   Overcast
2:08 PM 24.3 °F 11.7 °F 20.1 °F 84% 29.90 in 10.0 mi WNW 15.0 mph 20.7 mph N/A   Overcast
2:25 PM 23.0 °F 10.1 °F 19.4 °F 86% 29.91 in 5.0 mi WNW 15.0 mph - N/A   Overcast
2:45 PM 23.0 °F 11.1 °F 19.4 °F 86% 29.92 in 7.0 mi WNW 12.7 mph 19.6 mph N/A   Overcast
3:05 PM 23.0 °F 10.1 °F 19.4 °F 86% 29.92 in 2.5 mi WNW 15.0 mph 18.4 mph N/A   Overcast
3:30 PM 23.0 °F 10.6 °F 17.6 °F 80% 29.93 in 10.0 mi WNW 13.8 mph - N/A   Overcast
3:50 PM 21.2 °F 8.3 °F 17.6 °F 86% 29.94 in 10.0 mi WNW 13.8 mph 20.7 mph N/A   Overcast
4:45 PM 21.2 °F 6.4 °F 15.8 °F 80% 29.96 in 10.0 mi West 18.4 mph 25.3 mph N/A   Overcast
5:05 PM 21.2 °F 6.8 °F 15.8 °F 80% 29.96 in 10.0 mi WNW 17.3 mph 21.9 mph N/A   Overcast
5:25 PM 21.2 °F 8.9 °F 15.8 °F 80% 29.97 in 10.0 mi WNW 12.7 mph 18.4 mph N/A   Overcast
5:45 PM 21.2 °F 9.5 °F 15.8 °F 80% 29.98 in 10.0 mi WNW 11.5 mph - N/A   Overcast
6:05 PM 21.2 °F 9.5 °F 17.6 °F 86% 29.98 in 10.0 mi WNW 11.5 mph 17.3 mph N/A   Overcast
6:25 PM 21.2 °F 8.9 °F 17.6 °F 86% 29.99 in 10.0 mi WNW 12.7 mph 18.4 mph N/A   Overcast
6:50 PM 21.2 °F 9.5 °F 17.6 °F 86% 29.99 in 10.0 mi WNW 11.5 mph - N/A   Overcast
7:10 PM 21.2 °F 10.9 °F 17.6 °F 86% 29.98 in 10.0 mi WNW 9.2 mph - N/A   Overcast
7:25 PM 21.2 °F 10.1 °F 17.6 °F 86% 29.99 in 10.0 mi WNW 10.4 mph - N/A   Mostly Cloudy
7:45 PM 19.4 °F 8.6 °F 15.8 °F 86% 30.00 in 10.0 mi WNW 9.2 mph - N/A   Scattered Clouds
8:05 PM 19.4 °F 7.9 °F 15.8 °F 86% 30.00 in 10.0 mi West 10.4 mph - N/A   Clear
8:25 PM 15.8 °F 3.4 °F 14.0 °F 93% 30.01 in 10.0 mi West 10.4 mph - N/A   Clear
8:50 PM 15.8 °F 2.1 °F 12.2 °F 86% 30.02 in 10.0 mi West 12.7 mph - N/A   Clear
9:05 PM 15.8 °F 3.4 °F 12.2 °F 86% 30.02 in 10.0 mi West 10.4 mph - N/A   Clear
9:25 PM 17.6 °F 5.7 °F 14.0 °F 86% 30.02 in 10.0 mi West 10.4 mph - N/A   Mostly Cloudy
9:32 PM 19.2 °F 8.4 °F 15.4 °F 85% 30.02 in 10.0 mi West 9.2 mph - N/A   Mostly Cloudy
9:48 PM 19.2 °F 8.4 °F 15.4 °F 85% 30.02 in 10.0 mi West 9.2 mph - N/A   Overcast
10:08 PM 19.4 °F 8.6 °F 16.0 °F 87% 30.02 in 10.0 mi West 9.2 mph - N/A   Overcast
10:28 PM 19.2 °F 7.7 °F 16.2 °F 88% 30.03 in 10.0 mi West 10.4 mph - N/A   Overcast
10:48 PM 19.2 °F 8.4 °F 16.3 °F 89% 30.03 in 10.0 mi West 9.2 mph - N/A   Overcast
11:08 PM 17.1 °F 8.7 °F 14.2 °F 88% 30.03 in 10.0 mi WSW 5.8 mph - N/A   Overcast
11:29 PM 15.6 °F 4.9 °F 13.3 °F 90% 30.03 in 10.0 mi West 8.1 mph - N/A   Overcast
11:48 PM 14.7 °F 2.9 °F 12.9 °F 93% 30.03 in 10.0 mi West 9.2 mph - N/A   Overcast